Flag for Chile

Past Weather in Arica, Chile — Yesterday and Last 2 Weeks

Now
63 °F

Overcast.


Feels Like: 63 °F
Forecast: 69 / 61 °F
Wind: 5 mph from Southwest

Location: Iquique / Diego Arac
Current Time: Oct 20, 2020 at 6:18:20 am
Latest Report: Oct 20, 2020 at 5:00 am
Visibility: N/A
Pressure29.92 "Hg
Humidity: 73%
Dew Point: 54 °F
Location of AricaLocation

Past Weather in Arica — Graph

°F

Arica Temperature Yesterday

Maximum temperature yesterday: 66 °F (at 11:00 am)
Minimum temperature yesterday: 63 °F (at 12:00 am)
Average temperature yesterday: 64 °F

High & Low Weather Summary for the Past Weeks

 TemperatureHumidityPressure
High68 °F (Oct 11, 2:00 pm)88% (Oct 8, 2:00 am)30.07 "Hg (Oct 8, 2:00 am)
Low55 °F (Oct 8, 5:00 am)52% (Oct 7, 1:00 pm)29.83 "Hg (Oct 16, 6:00 pm)
Average63 °F70%29.96 "Hg
* Reported Oct 5 5:00 am — Oct 20 5:00 am, Arica. Weather by CustomWeather, © 2020

Note: Actual official high and low records may vary slightly from our data, if they occured in-between our weather recording intervals... More about our weather records

Arica Weather History for the Previous 24 Hours

Scroll right to see more
 ConditionsComfort  
Time TempWeatherWind HumidityBarometerVisibility
5:00 am
Tue, Oct 20
63 °FOvercast.5 mph73%29.92 "HgN/A
4:00 am63 °FOvercast.3 mph73%29.95 "HgN/A
3:00 am63 °FOvercast.2 mph73%29.95 "HgN/A
2:00 am63 °FOvercast.5 mph68%29.95 "HgN/A
1:00 am63 °FOvercast.No wind73%29.98 "HgN/A
12:00 am63 °FOvercast.2 mph77%30.01 "HgN/A
11:00 pm
Mon, Oct 19
64 °FOvercast.5 mph68%29.98 "HgN/A
10:00 pm63 °FOvercast.8 mph73%29.98 "HgN/A
9:00 pm63 °FOvercast.8 mph73%29.95 "HgN/A
8:00 pm63 °FOvercast.12 mph77%29.92 "HgN/A
7:00 pm63 °FOvercast.13 mph77%29.92 "HgN/A
6:00 pm63 °FOvercast.14 mph73%29.89 "HgN/A
5:00 pm63 °FOvercast.13 mph77%29.89 "HgN/A
4:00 pm64 °FOvercast.14 mph73%29.92 "HgN/A
3:00 pm66 °FOvercast.15 mph68%29.92 "HgN/A
2:00 pm66 °FOvercast.15 mph64%29.95 "HgN/A
1:00 pm66 °FOvercast.14 mph64%29.95 "HgN/A
12:00 pm66 °FPartly sunny.10 mph64%29.95 "HgN/A
11:00 am66 °FPartly sunny.7 mph60%29.98 "HgN/A
10:00 am64 °FOvercast.9 mph68%29.98 "HgN/A
9:00 am64 °FOvercast.8 mph68%29.98 "HgN/A
8:00 am63 °FOvercast.8 mph73%29.98 "HgN/A
Weather by CustomWeather, © 2020

See weather overview